STARLINK-31207, 59035

Orbit data source: Space-Track

STARLINK-31207, 59035 is a payload satellite owned by SpaceX/Seattle (US) in LEO that was launched on Sun, 25 Feb 2024 UTC via an FALCON 9 launch vehicle from the Air Force Eastern Test Range (AFETR). Payload-class satellites include a variety of spacecraft equipped with specific instruments for various scientific and technological missions. These include communications satellites like Starlink; space stations such as the ISS; scientific satellites like the Hubble; Earth observation satellites from companies like Planet Labs, Umbra, and HawkEye 360; GPS; miniature CubeSats for education and research; and military/defense satellites.

Loading next visibility...
Identifier
59035, 2024-038N
Orbit
LEO
Country
Flag of USUS
Related business
Manufacturer
SpaceX/Seattle
Mission
Operational Commercial Communications
Bus & Motor
STARLINK V2M, Unknown motor
Mass
730 kg wet, ~700 kg dry
Launch date (UTC)
2024-02-25 (2 years ago)
Launch vehicle
FALCON 9
Launch site
Air Force Eastern Test Range (AFETR)
Object type
Payload
Rocket body
Debris
Shape & HBR
Box + 2 Pan, 17.7 m
Radar Cross Section
33.884 m², Large (>1 m²)

Expand to show TLE details & history
Last TLE update: 22 hours ago

TLE from 22 hours ago
0 STARLINK-31207
1 59035U 24038N   25348.72098855  .00001448  00000-0  62134-4 0  9992
2 59035  42.9985 143.4008 0000824 284.3215  75.7545 15.27577305101861
Epoch: 2025-12-14T17:18Z
TLE epoch observation values (Epoch: 2025-12-14T17:18:13.410Z)
Latitude
-0.00004°
Longitude
160.21504°
Altitude
482.693 km
Speed
7.626 km/s
True Right ascension
09h 33m 36s
True Declination
0° 00' 00"
Sunlit
Object was in full shadow at epoch
Visualization orbit readout
Latitude
Unknown
Longitude
Unknown
Altitude
Unknown
Speed
Unknown
Apparent Right ascension
Unknown
Apparent Declination
Unknown
Sunlit
N/A
Visualization observer readout
Local Sidereal Time
13:26:13
Azimuth
Unknown
Elevation
Unknown
Doppler factor
Unknown
Orbital elements
Apogee altitude
485.568 km
Perigee altitude
484.437 km
Semi-major axis
6,863.14 km
Eccentricity
0.00008
Inclination
42.9985°
RAAN
143.4008°
Arg. of periapsis
284.3215°
True anomaly
75.76365°
Mean anomaly
75.7545°
Eccentric anomaly
75.75908°
Mean motion
3.81732 °/min
Orbital period
94.31 mins
BSTAR
0.000062134
Loading maneuver chart data...
Computing Atmospheric mass density...
Loading historical data...
Loading historical data...
Loading historical data...
Loading historical data...
Loading historical data...
Loading historical data...
Loading historical data...

Documentation

Showing up to 5 results
|